N510MV KVNY-KTRM

Flight info

Callsign N510MV
Flight time 0h 38m
Altitude 17000
Route NUAL1 PMD V137 PSP
Aircraft C510/L-SDFGRWY/LB1

Departure

Time 2026-04-24 02:57
Airport Van Nuys Airport (KVNY)

Arrival

Time 2026-04-24 03:35
Airport Jacqueline Cochran Regional Airport (KTRM)
Time Latitude Longitude Altitude Speed Heading
2026-04-24 02:30 34.20056 -118.48777 756 ft 0 kts 91°
2026-04-24 02:49 34.20056 -118.48775 755 ft 2 kts 82°
2026-04-24 02:49 34.20069 -118.48766 755 ft 4 kts 342°
2026-04-24 02:49 34.20077 -118.48801 757 ft 7 kts 269°
2026-04-24 02:50 34.20082 -118.48846 758 ft 11 kts 308°
2026-04-24 02:50 34.20181 -118.48853 760 ft 17 kts
2026-04-24 02:50 34.20285 -118.48853 762 ft 18 kts
2026-04-24 02:50 34.20413 -118.48849 764 ft 18 kts
2026-04-24 02:51 34.20542 -118.48837 767 ft 18 kts
2026-04-24 02:51 34.20673 -118.48830 770 ft 19 kts
2026-04-24 02:51 34.20806 -118.48822 772 ft 18 kts
2026-04-24 02:51 34.20924 -118.48830 775 ft 15 kts 354°
2026-04-24 02:52 34.21020 -118.48841 777 ft 12 kts 357°
2026-04-24 02:52 34.21103 -118.48847 778 ft 11 kts 356°
2026-04-24 02:52 34.21192 -118.48854 781 ft 14 kts 356°
2026-04-24 02:52 34.21304 -118.48864 784 ft 17 kts 356°
2026-04-24 02:53 34.21439 -118.48876 786 ft 20 kts 355°
2026-04-24 02:53 34.21575 -118.48895 788 ft 18 kts 351°
2026-04-24 02:53 34.21681 -118.48922 790 ft 13 kts 346°
2026-04-24 02:53 34.21765 -118.48937 791 ft 10 kts 355°
2026-04-24 02:54 34.21832 -118.48943 793 ft 8 kts 355°
2026-04-24 02:54 34.21883 -118.48959 793 ft 7 kts 312°
2026-04-24 02:54 34.21890 -118.49026 793 ft 9 kts 268°
2026-04-24 02:54 34.21889 -118.49044 793 ft 0 kts 265°
2026-04-24 02:55 34.21888 -118.49056 793 ft 3 kts 265°
2026-04-24 02:56 34.21881 -118.49106 793 ft 8 kts 241°
2026-04-24 02:56 34.21790 -118.49113 792 ft 33 kts 176°
2026-04-24 02:56 34.21289 -118.49065 786 ft 105 kts 177°
2026-04-24 02:56 34.20486 -118.48986 1021 ft 124 kts 179°
2026-04-24 02:57 34.19676 -118.48596 1566 ft 132 kts 142°
2026-04-24 02:57 34.18932 -118.47834 2080 ft 153 kts 140°
2026-04-24 02:57 34.18055 -118.46943 2675 ft 178 kts 141°
2026-04-24 02:57 34.17100 -118.45944 3456 ft 192 kts 140°
2026-04-24 02:58 34.16040 -118.44931 4333 ft 200 kts 141°
2026-04-24 02:58 34.15096 -118.43710 5147 ft 208 kts 117°
2026-04-24 02:58 34.14849 -118.42015 5985 ft 212 kts 76°
2026-04-24 02:58 34.15652 -118.40591 6873 ft 212 kts 32°
2026-04-24 02:59 34.17046 -118.40203 7736 ft 211 kts 352°
2026-04-24 02:59 34.18314 -118.40916 8636 ft 207 kts 314°
2026-04-24 02:59 34.19212 -118.42225 9532 ft 204 kts 307°
2026-04-24 02:59 34.20072 -118.43546 10340 ft 205 kts 306°
2026-04-24 03:00 34.20955 -118.44893 11146 ft 206 kts 306°
2026-04-24 03:00 34.21827 -118.46226 11919 ft 207 kts 310°
2026-04-24 03:00 34.23154 -118.47069 12340 ft 234 kts 354°
2026-04-24 03:00 34.24541 -118.46315 13627 ft 222 kts 41°
2026-04-24 03:01 34.25604 -118.45101 14527 ft 208 kts 33°
2026-04-24 03:01 34.26776 -118.44042 14908 ft 222 kts 28°
2026-04-24 03:01 34.28095 -118.42806 15117 ft 249 kts 34°
2026-04-24 03:01 34.29573 -118.41293 15671 ft 258 kts 35°
2026-04-24 03:02 34.30922 -118.39896 16291 ft 260 kts 35°
2026-04-24 03:02 34.32292 -118.38477 16883 ft 262 kts 35°
2026-04-24 03:02 34.33748 -118.36976 17011 ft 285 kts 35°
2026-04-24 03:02 34.35305 -118.35366 17026 ft 302 kts 36°
2026-04-24 03:03 34.36940 -118.33668 17019 ft 312 kts 36°
2026-04-24 03:03 34.38592 -118.31949 17014 ft 317 kts 36°
2026-04-24 03:03 34.40284 -118.30193 17011 ft 319 kts 36°
2026-04-24 03:03 34.41988 -118.28425 17003 ft 321 kts 36°
2026-04-24 03:04 34.43681 -118.26662 16998 ft 321 kts 36°
2026-04-24 03:04 34.45387 -118.24895 17010 ft 322 kts 36°
2026-04-24 03:04 34.47092 -118.23119 17016 ft 323 kts 36°
2026-04-24 03:04 34.48783 -118.21362 17021 ft 324 kts 36°
2026-04-24 03:05 34.50501 -118.19575 17020 ft 324 kts 36°
2026-04-24 03:05 34.52226 -118.17775 17023 ft 324 kts 36°
2026-04-24 03:05 34.53942 -118.15989 17029 ft 325 kts 36°
2026-04-24 03:05 34.55661 -118.14197 17022 ft 325 kts 36°
2026-04-24 03:06 34.57378 -118.12407 17023 ft 325 kts 36°
2026-04-24 03:06 34.59104 -118.10604 17026 ft 325 kts 36°
2026-04-24 03:06 34.60799 -118.08777 16984 ft 328 kts 43°
2026-04-24 03:06 34.61880 -118.06337 16988 ft 336 kts 75°
2026-04-24 03:07 34.61852 -118.03528 16987 ft 339 kts 104°
2026-04-24 03:07 34.60827 -118.00974 17007 ft 335 kts 124°
2026-04-24 03:07 34.59633 -117.98518 17001 ft 336 kts 121°
2026-04-24 03:07 34.58466 -117.96078 16995 ft 336 kts 121°
2026-04-24 03:08 34.57318 -117.93596 16979 ft 336 kts 121°
2026-04-24 03:08 34.55047 -117.88654 16992 ft 336 kts 120°
2026-04-24 03:08 34.53914 -117.86180 16987 ft 336 kts 120°
2026-04-24 03:09 34.52759 -117.83662 16993 ft 336 kts 121°
2026-04-24 03:09 34.51635 -117.81207 17004 ft 337 kts 120°
2026-04-24 03:09 34.50485 -117.78701 16997 ft 337 kts 120°
2026-04-24 03:09 34.49350 -117.76229 17034 ft 338 kts 120°
2026-04-24 03:10 34.48191 -117.73706 16982 ft 339 kts 120°
2026-04-24 03:10 34.47054 -117.71231 17033 ft 338 kts 121°
2026-04-24 03:10 34.45892 -117.68703 17013 ft 339 kts 121°
2026-04-24 03:10 34.44746 -117.66215 17004 ft 339 kts 121°
2026-04-24 03:11 34.43587 -117.63705 17010 ft 339 kts 121°
2026-04-24 03:11 34.42440 -117.61211 16988 ft 339 kts 121°
2026-04-24 03:11 34.41294 -117.58725 16999 ft 339 kts 121°
2026-04-24 03:11 34.40142 -117.56235 16998 ft 339 kts 121°
2026-04-24 03:12 34.38992 -117.53748 16971 ft 339 kts 121°
2026-04-24 03:12 34.37837 -117.51245 16991 ft 339 kts 121°
2026-04-24 03:12 34.36688 -117.48774 17013 ft 339 kts 121°
2026-04-24 03:12 34.35544 -117.46294 17015 ft 340 kts 121°
2026-04-24 03:13 34.34376 -117.43775 16997 ft 340 kts 121°
2026-04-24 03:13 34.33229 -117.41301 16960 ft 339 kts 121°
2026-04-24 03:13 34.32070 -117.38809 16964 ft 339 kts 121°
2026-04-24 03:13 34.30917 -117.36320 16994 ft 339 kts 121°
2026-04-24 03:14 34.29741 -117.33786 16821 ft 345 kts 121°
2026-04-24 03:14 34.28550 -117.31225 16584 ft 351 kts 121°
2026-04-24 03:14 34.27370 -117.28685 16325 ft 344 kts 121°
2026-04-24 03:14 34.26208 -117.26183 16063 ft 335 kts 121°
2026-04-24 03:15 34.25082 -117.23760 15812 ft 327 kts 121°
2026-04-24 03:15 34.23982 -117.21399 15544 ft 322 kts 122°
2026-04-24 03:15 34.22887 -117.19061 15291 ft 318 kts 122°
2026-04-24 03:15 34.21804 -117.16748 15049 ft 314 kts 122°
2026-04-24 03:16 34.20747 -117.14488 14996 ft 307 kts 121°
2026-04-24 03:16 34.19703 -117.12255 14987 ft 301 kts 121°
2026-04-24 03:16 34.18673 -117.10058 14982 ft 296 kts 121°
2026-04-24 03:16 34.17673 -117.07910 14994 ft 292 kts 121°
2026-04-24 03:17 34.16672 -117.05780 14981 ft 289 kts 121°
2026-04-24 03:17 34.15694 -117.03682 14987 ft 286 kts 121°
2026-04-24 03:17 34.14758 -117.01688 14987 ft 284 kts 121°
2026-04-24 03:17 34.13798 -116.99639 14991 ft 282 kts 121°
2026-04-24 03:18 34.12824 -116.97563 15057 ft 281 kts 121°
2026-04-24 03:18 34.11866 -116.95521 15080 ft 281 kts 122°
2026-04-24 03:18 34.10895 -116.93459 15051 ft 284 kts 122°
2026-04-24 03:18 34.09922 -116.91383 15013 ft 286 kts 122°
2026-04-24 03:19 34.08924 -116.89269 15058 ft 290 kts 122°
2026-04-24 03:19 34.07924 -116.87142 15076 ft 296 kts 122°
2026-04-24 03:19 34.06899 -116.84970 15071 ft 301 kts 122°
2026-04-24 03:19 34.05847 -116.82735 15069 ft 305 kts 122°
2026-04-24 03:20 34.04796 -116.80506 15102 ft 307 kts 122°
2026-04-24 03:20 34.03745 -116.78273 15100 ft 311 kts 121°
2026-04-24 03:20 34.02664 -116.75989 15061 ft 313 kts 121°
2026-04-24 03:20 34.01579 -116.73692 15086 ft 314 kts 122°
2026-04-24 03:21 34.00496 -116.71401 14883 ft 317 kts 122°
2026-04-24 03:21 33.99403 -116.69035 14627 ft 325 kts 118°
2026-04-24 03:21 33.98567 -116.66502 14449 ft 331 kts 110°
2026-04-24 03:21 33.97778 -116.63897 14233 ft 333 kts 111°
2026-04-24 03:22 33.96987 -116.61265 14011 ft 331 kts 111°
2026-04-24 03:22 33.96208 -116.58664 13761 ft 327 kts 110°
2026-04-24 03:22 33.95449 -116.56129 13529 ft 321 kts 111°
2026-04-24 03:22 33.94701 -116.53625 13264 ft 314 kts 110°
2026-04-24 03:23 33.93968 -116.51171 13023 ft 308 kts 111°
2026-04-24 03:23 33.93253 -116.48766 12776 ft 302 kts 110°
2026-04-24 03:23 33.92553 -116.46432 12536 ft 298 kts 110°
2026-04-24 03:23 33.91812 -116.44103 12290 ft 293 kts 116°
2026-04-24 03:24 33.90780 -116.42050 12051 ft 287 kts 129°
2026-04-24 03:24 33.89542 -116.40157 11814 ft 284 kts 130°
2026-04-24 03:24 33.88329 -116.38299 11575 ft 278 kts 130°
2026-04-24 03:24 33.87141 -116.36498 11327 ft 272 kts 130°
2026-04-24 03:25 33.85983 -116.34730 11082 ft 267 kts 131°
2026-04-24 03:25 33.84819 -116.32958 10833 ft 263 kts 131°
2026-04-24 03:25 33.83682 -116.31225 10590 ft 259 kts 131°
2026-04-24 03:25 33.82413 -116.29758 10325 ft 251 kts 155°
2026-04-24 03:26 33.80768 -116.29225 10102 ft 241 kts 173°
2026-04-24 03:26 33.79125 -116.28853 9868 ft 239 kts 173°
2026-04-24 03:26 33.77506 -116.28499 9612 ft 233 kts 173°
2026-04-24 03:26 33.75937 -116.28193 9348 ft 221 kts 175°
2026-04-24 03:27 33.74428 -116.28014 9104 ft 213 kts 178°
2026-04-24 03:27 33.73061 -116.27841 8940 ft 182 kts 177°
2026-04-24 03:27 33.71871 -116.27679 8640 ft 164 kts 177°
2026-04-24 03:27 33.70787 -116.27376 8214 ft 160 kts 161°
2026-04-24 03:28 33.69826 -116.26778 7431 ft 154 kts 148°
2026-04-24 03:28 33.68999 -116.26047 6770 ft 147 kts 142°
2026-04-24 03:28 33.68241 -116.25298 6194 ft 137 kts 143°
2026-04-24 03:28 33.67449 -116.24736 5702 ft 127 kts 160°
2026-04-24 03:29 33.66616 -116.24545 5325 ft 121 kts 176°
2026-04-24 03:29 33.65775 -116.24458 4949 ft 126 kts 175°
2026-04-24 03:29 33.64887 -116.24326 4639 ft 129 kts 172°
2026-04-24 03:29 33.64009 -116.24085 4395 ft 128 kts 163°
2026-04-24 03:30 33.63182 -116.23698 4104 ft 129 kts 163°
2026-04-24 03:30 33.62288 -116.23531 3855 ft 127 kts 176°
2026-04-24 03:30 33.61420 -116.23457 3617 ft 126 kts 175°
2026-04-24 03:30 33.60543 -116.23395 3376 ft 125 kts 174°
2026-04-24 03:31 33.59678 -116.23315 3078 ft 125 kts 175°
2026-04-24 03:31 33.58813 -116.23251 2770 ft 123 kts 172°
2026-04-24 03:31 33.58007 -116.22903 2405 ft 125 kts 140°
2026-04-24 03:31 33.57549 -116.22071 2084 ft 121 kts 101°
2026-04-24 03:32 33.57471 -116.21091 1786 ft 118 kts 91°
2026-04-24 03:32 33.57418 -116.20136 1534 ft 107 kts 91°
2026-04-24 03:32 33.57361 -116.19247 1217 ft 109 kts 92°
2026-04-24 03:32 33.57316 -116.18339 973 ft 108 kts 90°
2026-04-24 03:33 33.57294 -116.17444 711 ft 109 kts 80°
2026-04-24 03:33 33.57624 -116.16620 578 ft 109 kts 41°
2026-04-24 03:33 33.58215 -116.16048 551 ft 110 kts 26°
2026-04-24 03:33 33.58953 -116.15785 493 ft 110 kts
2026-04-24 03:34 33.59699 -116.15685 337 ft 106 kts
2026-04-24 03:34 33.60442 -116.15652 170 ft 107 kts
2026-04-24 03:34 33.61190 -116.15647 27 ft 107 kts
2026-04-24 03:34 33.61908 -116.15646 -67 ft 90 kts
2026-04-24 03:35 33.62436 -116.15642 -69 ft 61 kts 360°
2026-04-24 03:35 33.62797 -116.15644 -74 ft 43 kts
2026-04-24 03:35 33.63060 -116.15643 -77 ft 31 kts 359°
2026-04-24 03:35 33.63261 -116.15642 -76 ft 27 kts
2026-04-24 03:36 33.63409 -116.15690 -76 ft 18 kts 286°
2026-04-24 03:36 33.63461 -116.15771 -77 ft 13 kts 356°
2026-04-24 03:36 33.63571 -116.15770 -76 ft 17 kts 359°
2026-04-24 03:36 33.63610 -116.15836 -77 ft 10 kts 270°
2026-04-24 03:37 33.63626 -116.15936 -78 ft 15 kts 271°
2026-04-24 03:37 33.63627 -116.16091 -78 ft 17 kts 270°
2026-04-24 03:37 33.63611 -116.16197 -77 ft 7 kts 188°
2026-04-24 03:37 33.63553 -116.16191 -78 ft 8 kts 173°
2026-04-24 03:38 33.63496 -116.16194 -78 ft 6 kts 191°
2026-04-24 03:38 33.63467 -116.16212 -78 ft 2 kts 258°
2026-04-24 03:38 33.63469 -116.16241 -77 ft 2 kts 276°
2026-04-24 03:38 33.63469 -116.16251 -77 ft 1 kts 271°
2026-04-24 03:39 33.63470 -116.16253 -77 ft 0 kts 271°